Location: Cherryland
(37.6794°N, 122.1033°W)
Time: 14:40:45
(UTC+00:00)

NOSS 3-1 (A) - Pass Details

Date: 14 December 2025
Orbit: 613 x 1593 km, 63.4° (Epoch: 10 January)

Event Time Altitude Azimuth Distance (km) Brightness Sun altitude
Exits shadow 12:46:29 31° 345° (NNW) 2,025 4.9 -28.7°
Maximum altitude 12:50:29 62° 55° (NE) 1,486 4.5 -27.9°
Drops below altitude 10° 12:59:33 10° 135° (SE) 3,678 7.2 -26.1°
Sets 13:02:49 0° 138° (SE) 4,723 7.8 -25.5°
